Вернуться в каталог

STARLINK-36783

АктивенСвязьVLEO
NORAD 67873·PAYLOAD·🇺🇸 United States

Запущен Feb 20, 2026 с Vandenberg Space Force Base

Loading…

Ближайшие Пролёты (ближайшие 24 часа)

TLE

СвежийSource: CelesTrak SupGP

Эпоха: Sep 14, 2026, 22:36 UTC

1 67873C 26034Z   26257.94215278  .00020931  00000+0  61834-3 0  2572
2 67873  53.1590  40.0199 0001125  66.7307 300.5855 15.34384317    13

Отслеживайте STARLINK-36783 в реальном времени с AllMySat

Download on the App Store